This is the latest recevied weather packets stored in our database for station/object N8XHB. If no packets are shown the sender has not sent any weather packets the latest 10 day(s).
| Time | Temp. | Humidity | Pressure | Rain* | Wind** | Luminosity | Snow |
|---|---|---|---|---|---|---|---|
| 1777824183 | 13.33° C | 46% | 1012.4 hPa | 0 mm | - | 356 W/m² | - |
| 1777823878 | 12.78° C | 45% | 1012.2 hPa | 0 mm | - | 391 W/m² | - |
| 1777823577 | 13.33° C | 45% | 1012.4 hPa | 0 mm | - | 277 W/m² | - |
| 1777823273 | 12.78° C | 46% | 1012.4 hPa | 0 mm | - | 266 W/m² | - |
| 1777822971 | 12.78° C | 46% | 1012.5 hPa | 0 mm | - | 268 W/m² | - |
| 1777822669 | 12.78° C | 45% | 1012.3 hPa | 0 mm | - | 269 W/m² | - |
| 1777822366 | 12.78° C | 47% | 1012.5 hPa | 0 mm | - | 206 W/m² | - |
| 1777822064 | 12.78° C | 46% | 1012.3 hPa | 0 mm | - | 193 W/m² | - |
| 1777821762 | 12.78° C | 46% | 1012.4 hPa | 0 mm | - | 169 W/m² | - |
| 1777821458 | 12.78° C | 46% | 1012.1 hPa | 0 mm | - | 183 W/m² | - |
| 1777821156 | 12.78° C | 47% | 1012.3 hPa | 0 mm | - | 190 W/m² | - |
| 1777820853 | 12.78° C | 47% | 1012.3 hPa | 0 mm | - | 264 W/m² | - |
| 1777820549 | 12.22° C | 46% | 1012.1 hPa | 0 mm | - | 306 W/m² | - |
| 1777820246 | 12.22° C | 46% | 1012.3 hPa | 0 mm | - | 282 W/m² | - |
| 1777819943 | 11.67° C | 48% | 1012.4 hPa | 0 mm | - | 473 W/m² | - |
| 1777819640 | 11.67° C | 47% | 1012.2 hPa | 0 mm | - | 241 W/m² | - |
| 1777819339 | 11.67° C | 47% | 1012.2 hPa | 0 mm | - | 187 W/m² | - |
| 1777819034 | 12.22° C | 46% | 1012.3 hPa | 0 mm | - | 183 W/m² | - |
| 1777818732 | 12.22° C | 46% | 1012.3 hPa | 0 mm | - | 245 W/m² | - |
| 1777818428 | 12.22° C | 47% | 1012.4 hPa | 0 mm | - | 296 W/m² | - |
| 1777818125 | 11.67° C | 48% | 1012.5 hPa | 0 mm | - | 304 W/m² | - |
| 1777817822 | 11.67° C | 47% | 1012.5 hPa | 0 mm | - | 262 W/m² | - |
| 1777817519 | 11.67° C | 48% | 1012.5 hPa | 0 mm | - | 221 W/m² | - |
| 1777817215 | 11.11° C | 49% | 1012.7 hPa | 0 mm | - | 165 W/m² | - |
| 1777816913 | 11.11° C | 49% | 1012.8 hPa | 0 mm | - | 136 W/m² | - |
* Rain latest hour (hover to see other rain measurements)
** Current wind speed in m/s (hover to see current wind gust speed)